DW6005 Weather Reports


time (UTC)temp
F
wind
direction
speed
knots
gust
knots
rain 1hr
in
rain 24hr
in
rain mn
in
humidity
%
barometer
mb
20260502224507 63 111 1.7 3.5 0.00 0.00 0.00 86 1016.2
20260502223002 63 108 0.0 1.7 0.00 0.00 0.00 86 1016.4
20260502221502 63 108 0.0 3.5 0.00 0.00 0.00 86 1016.3
20260502220105 63 109 0.9 2.6 0.00 0.00 0.00 86 1016.5
20260502214607 63 109 1.7 5.2 0.00 0.00 0.00 86 1016.5
20260502213057 63 115 0.9 6.1 0.00 0.00 0.00 86 1016.7
20260502211559 63 121 1.7 5.2 0.00 0.00 0.00 86 1016.8
20260502204555 63 115 1.7 5.2 0.00 0.00 0.00 86 1016.7
20260502203059 63 111 2.6 5.2 0.00 0.00 0.00 85 1016.6
20260502201553 63 111 1.7 5.2 0.00 0.00 0.00 84 1016.4
20260502200053 64 113 2.6 7.0 0.00 0.00 0.00 84 1016.2
20260502194554 64 120 2.6 6.1 0.00 0.00 0.00 84 1016.0
20260502193052 64 117 4.3 7.8 0.00 0.00 0.00 84 1015.9
20260502191551 65 115 3.5 8.7 0.00 0.00 0.00 83 1015.9
20260502190052 65 113 4.3 7.8 0.00 0.00 0.00 82 1015.8
20260502184549 66 119 6.1 11.3 0.00 0.00 0.00 81 1015.6
20260502183049 66 107 5.2 10.4 0.00 0.00 0.00 81 1015.7
20260502181548 67 120 5.2 13.0 0.00 0.00 0.00 79 1015.7
20260502163041 69 107 4.3 8.7 0.00 0.00 0.00 72 1016.5
20260502161540 70 124 5.2 11.3 0.00 0.00 0.00 71 1016.3
20260502151532 70 86 5.2 8.7 0.00 0.00 0.00 71 1017.2
20260502123020 70 117 4.3 8.7 0.00 0.00 0.00 72 1018.5
20260502121516 69 111 2.6 9.6 0.00 0.00 0.00 74 1018.6
20260502114512 69 135 7.0 11.3 0.00 0.00 0.00 73 1018.9
20260502113017 70 96 4.3 10.4 0.00 0.00 0.00 72 1019.1
20260502111509 70 88 5.2 8.7 0.00 0.00 0.00 72 1019.2
20260502110005 69 119 5.2 10.4 0.00 0.00 0.00 73 1019.3
20260502104516 69 115 4.3 9.6 0.00 0.00 0.00 73 1019.4
20260502103005 69 115 3.5 10.4 0.00 0.00 0.00 74 1019.5
20260502101501 69 124 7.8 12.2 0.00 0.00 0.00 74 1019.5
20260502100123 69 102 3.5 10.4 0.00 0.00 0.00 76 1019.7
20260502070029 64 100 0.0 0.9 0.00 0.00 0.00 83 1020.1
20260502064526 64 101 0.0 2.6 0.00 0.00 0.00 84 1020.1
20260502063023 64 117 0.0 0.0 0.00 0.00 0.00 84 1020.3
20260502061521 64 116 0.0 0.0 0.00 0.00 0.00 84 1020.2
20260502060018 64 116 0.0 0.9 0.00 0.00 0.00 84 1020.1
20260502054519 64 117 0.0 0.0 0.00 0.00 0.00 84 1019.9
20260502053015 64 116 0.0 0.0 0.00 0.00 0.00 84 1019.9
20260502051527 64 116 0.0 0.9 0.00 0.00 0.00 84 1019.8
20260502050111 63 117 0.0 0.0 0.00 0.00 0.00 84 1019.9
20260502044510 63 117 0.0 0.0 0.00 0.00 0.00 85 1019.9
20260502043009 63 116 0.0 1.7 0.00 0.00 0.00 85 1019.9
20260502041508 63 116 0.0 0.0 0.00 0.00 0.00 85 1020.0
20260502040008 63 116 0.0 0.0 0.00 0.00 0.00 86 1020.0
20260502034505 63 116 0.0 0.0 0.00 0.00 0.00 86 1020.3
20260502033004 63 117 0.0 0.0 0.00 0.00 0.00 86 1020.2
20260502031504 63 117 0.0 0.0 0.00 0.00 0.00 86 1020.3
20260502030003 63 117 0.0 0.0 0.00 0.00 0.00 86 1020.3
20260502024502 63 117 0.0 0.0 0.00 0.00 0.00 86 1020.3
20260502023002 63 117 0.0 1.7 0.00 0.00 0.00 86 1020.3
20260502021502 63 117 0.9 2.6 0.00 0.00 0.00 86 1020.1
20260502020111 63 114 1.7 3.5 0.00 0.00 0.00 86 1020.1
20260502014558 63 109 0.0 1.7 0.00 0.00 0.00 85 1020.4
20260502013100 63 109 0.0 2.6 0.00 0.00 0.00 85 1020.5
20260502011555 63 110 0.9 2.6 0.00 0.00 0.00 85 1020.6
20260502010056 63 108 0.9 3.5 0.00 0.00 0.00 85 1020.8
20260502004554 63 106 0.9 3.5 0.00 0.00 0.00 85 1020.8
20260502003050 63 113 0.0 2.6 0.00 0.00 0.00 86 1021.0
20260502001547 63 113 0.0 1.7 0.00 0.00 0.00 86 1021.3
20260502000045 63 114 0.0 2.6 0.00 0.00 0.00 86 1021.6
20260501234551 63 114 0.0 3.5 0.00 0.00 0.00 86 1021.7
20260501233042 63 115 0.9 5.2 0.00 0.00 0.00 86 1021.9
20260501231554 63 119 1.7 3.5 0.00 0.00 0.00 85 1022.0
20260501230039 64 117 1.7 3.5 0.00 0.00 0.00 85 1021.9